Regional Weather Roundup
Issued by NWS Kansas City/Pleasant Hill, MO

Home | Current Version | Previous Version | Graphics & Text | Print | Product List | Glossary Off
Versions: 1 2 3 4 5 6 7 8 9 10 11 12 13 14 15 16 17 18 19 20 21 22 23 24 25 26 27 28

000
ASUS43 KEAX 280310
RWREAX

WEATHER ROUNDUP FOR EASTERN KANSAS AND NORTHWEST MISSOURI
NATIONAL WEATHER SERVICE KANSAS CITY/PLEASANT HILL MO
1000 PM CDT WED JUL 27 2016

KSZ040-057-103>105-MOZ028-029-037-043-280400-
...KANSAS CITY METROPOLITAN AREA...

CITY           SKY/WX    TMP DP  RH WIND       PRES   REMARKS
K.C. INTL      MOCLDY    79  71  76 NE5       29.95R
K.C. DOWNTOWN  PTCLDY    82  71  69 NE5       29.93R
LEES SUMMIT    CLEAR     81  72  74 N8        29.95R
OLATHE - IXD   CLEAR     75  71  87 N7        29.96R
OLATHE - OJC   CLEAR     81  70  69 N5        29.95R
LAWRENCE       CLEAR     74  71  91 CALM      29.94R

$$

MOZ001>008-011>017-020>025-030>033-038>040-044>046-053-054-280400-
...NORTHERN AND CENTRAL MISSOURI...

CITY           SKY/WX    TMP DP  RH WIND       PRES   REMARKS
ST. JOSEPH     PTCLDY    77  73  87 N3        29.94R
MOSBY          CLEAR     77  72  83 CALM      29.94R
WHITEMAN AFB   PTCLDY    78  76  92 N2        29.92R
CLINTON        PTCLDY    77  75  94 CALM      29.93R
SEDALIA        CLEAR     79  74  84 N3        29.94R
WARSAW         NOT AVBL
CHILLICOTHE      N/A     76  73  91 CALM      29.95R
KIRKSVILLE     PTCLDY    76  70  82 N6        29.95R

$$

MOZ041-047>049-056>058-063>065-088>090-097-280400-
...EASTERN AND SOUTHERN MISSOURI...

CITY           SKY/WX    TMP DP  RH WIND       PRES   REMARKS
ST. LOUIS INTL CLOUDY    84  73  69 S8        29.93R HX  90
SPIRIT OF STL  CLOUDY    79  75  87 CALM      29.92R
COLUMBIA       PTCLDY    79  76  90 N6        29.94R
JEFFERSON CITY MOCLDY    81  75  82 CALM      29.91R
ROLLA          PTCLDY    74  71  91 S7        29.94R
OSAGE BEACH    MOCLDY    80  75  84 S5        29.94R
SPRINGFIELD    CLOUDY    75  71  87 W5        29.95R
BRANSON        LGT RAIN  73  73 100 CALM      29.96S
JOPLIN         CLEAR     75  71  87 S6        29.95R
WEST PLAINS    CLOUDY    73  70  90 CALM      29.98R

$$

IAZ060-094-KSZ022-034>040-054-083-096-NEZ052-066-093-280400-
...KANSAS...SOUTHEAST NEBRASKA AND IOWA...

CITY           SKY/WX    TMP DP  RH WIND       PRES   REMARKS
TOPEKA           N/A     78  73  84 CALM      29.95R
MANHATTAN      CLEAR     77  70  79 CALM      29.96R
EMPORIA        PTCLDY    78  75  90 S3        29.95R
CHANUTE        CLOUDY    81  77  88 CALM      29.94R
WICHITA        PTCLDY    84  70  62 E7        29.95R
OMAHA          CLOUDY    77  71  82 N5        29.97R
LINCOLN        CLEAR     76  69  79 N8        30.00R
FALLS CITY     CLEAR     77  71  82 NW5       29.96R
LAMONI         PTCLDY    76  73  91 CALM      29.96R
DES MOINES     PTCLDY    80  68  66 CALM      29.95R

$$





USA.gov is the U.S. government's official web portal to all federal, state and local government web resources and services.